Regional Weather Roundup
Issued by NWS

Home | Current Version | Previous Version | Text Only | Print | Product List | Glossary Off
Versions: 1 2 3 4 5 6 7 8 9 10 11 12 13 14 15 16 17 18 19 20 21 22 23 24 25 26 27 28 29 30 31 32 33 34 35 36 37 38 39 40 41 42 43 44 45 46 47 48 49 50

000
ASUS43 KMPX 242110
RWRMN
WEATHER ROUNDUP FOR MINNESOTA
NATIONAL WEATHER SERVICE TWIN CITIES/CHANHASSEN MN
300 PM CST WED DEC 24 2014


NOTE: "FAIR" INDICATES FEW OR NO CLOUDS BELOW 12,000 FEET WITH NO
SIGNIFICANT WEATHER AND/OR OBSTRUCTIONS TO VISIBILITY. N/A MEANS
CURRENT SKY AND/OR WEATHER CONDITIONS ARE NOT AVAILABLE.

MNZ060>063-068>070-242200-
   Twin Cities Metro

CITY           SKY/WX    TMP DP  RH WIND       PRES   REMARKS
TWIN CITIES    CLOUDY    36  30  79 NW8       29.64S
ST PAUL        CLOUDY    36  31  82 NW8       29.65S
CRYSTAL        CLOUDY    36  31  82 W6        29.64R
BLAINE         CLOUDY    37  34  87 W8        29.63S
LAKEVILLE      CLOUDY    34  30  86 NW8       29.64R WCI  27
EDEN PRAIRIE   CLOUDY    35  30  82 W6        29.64S WCI  30
SOUTH ST PAUL  CLOUDY    37  32  82 NW8       29.64R
LAKE ELMO      CLOUDY    36  32  87 NW10      29.64R
$$
MNZ001>005-007-008-013>017-022>024-027-028-242200-
   Northwest Minnesota

CITY           SKY/WX    TMP DP  RH WIND       PRES   REMARKS
BEMIDJI        CLOUDY    31  28  87 SW5       29.58F WCI  26
HALLOCK        CLOUDY    27  25  93 S14       29.57R WCI  15
ROSEAU         CLOUDY    30  27  86 S8        29.56F WCI  23
WARROAD        CLOUDY    30  27  86 S6        29.57F WCI  24
THIEF RVR FALL CLOUDY    27  25  93 S9        29.58F WCI  17
CROOKSTON      CLOUDY    27  25  93 S16       29.60F WCI  14
FOSSTON        CLOUDY    27  25  93 S12       29.59F WCI  16
DETROIT LAKES  CLOUDY    28  28 100 SW9       29.61F WCI  20
MOORHEAD       CLOUDY    27  27 100 S9        29.62F WCI  17
PARK RAPIDS    CLOUDY    32  27  81 W5        29.59F WCI  27
MAHNOMEN       CLOUDY    28  26  94 S12       29.59F WCI  17
$$
MNZ006-009>011-018-025>026-242200-
   North Central Minnesota

CITY           SKY/WX    TMP DP  RH WIND       PRES   REMARKS
BAUDETTE       CLOUDY    32  27  81 SW8       29.57F WCI  25
FLAG ISLAND    CLOUDY    30  28  93 S5        29.56F WCI  25
INTL FALLS     CLOUDY    33  31  92 SW3       29.57F FOG
WASKISH        CLOUDY    30  30 100 CALM      29.57F
BIG FORK       CLOUDY    34  30  86 CALM      29.59F
LONGVILLE      CLOUDY    32  30  93 CALM      29.60F
GRAND RAPIDS   CLOUDY    32  28  86 W6        29.59F WCI  26
CRANE LAKE     LGT SNOW  30  30 100 CALM      29.60F
ORR            MIX PCPN  32  30  93 CALM      29.56F
COOK           CLOUDY    32  30  93 CALM      29.59S
WALKER         CLOUDY    32  29  88 SW5       29.59F WCI  27
$$
MNZ012-019>021-037-242200-
   Northeast Minnesota

CITY           SKY/WX    TMP DP  RH WIND       PRES   REMARKS
DULUTH         LGT SNOW  33  30  88 NW6       29.58S FOG     WCI  28
ELY            CLOUDY    32  28  86 W3        29.58S
HIBBING        CLOUDY    34  30  85 CALM      29.58F
EVELETH        CLOUDY    32  32 100 CALM      29.60F
DULUTH HARBOR  CLOUDY    36  30  80 CALM      29.62S
TWO HARBORS    CLOUDY    37  30  75 CALM      29.57S
SILVER BAY     CLOUDY    36  30  80 CALM      29.56F
GRAND MARAIS     N/A     37  30  75 SW6       29.57F
G MARAIS ARPRT CLOUDY    28  25  86 NW5       29.54F WCI  23
$$
MNZ029>031-032-039>041-046>048-054>057-064-242200-
   West Central Minnesota

CITY           SKY/WX    TMP DP  RH WIND       PRES   REMARKS
FERGUS FALLS   CLOUDY    27  25  93 SW8       29.67F WCI  18
WHEATON        CLOUDY    25  25 100 S6        29.67F WCI  18
MORRIS         PTSUNNY   28  27  93 W7        29.65F WCI  21
ALEXANDRIA     CLOUDY    30  26  85 W8        29.63F WCI  22
ELBOW LAKE     CLOUDY    27  26  96 SW8       29.64F WCI  18
WADENA         LGT SNOW  28  28 100 W6        29.61F WCI  22
GLENWOOD       CLOUDY    28  28 100 W8        29.64F WCI  20
APPLETON       CLOUDY    30  27  86 W7        29.66F WCI  23
BENSON         CLOUDY    30  27  86 NW8       29.66F WCI  23
ORTONVILLE     CLOUDY    28  25  86 SW7       29.66F WCI  21
MADISON          N/A     34  30  86 SW9       29.67F WCI  26
WILLMAR        CLOUDY    30  28  93 W9        29.67F WCI  22
$$
MNZ033>034-036-042>043-049>051-058-059-242200-
   Central Minnesota

CITY           SKY/WX    TMP DP  RH WIND       PRES   REMARKS
ST CLOUD       CLOUDY    36  30  79 NW7       29.63F
SAUK CENTRE    CLOUDY    31  29  93 W9        29.64F WCI  23
PAYNESVILLE    CLOUDY    29  29 100 SW8       29.65F FOG     WCI  21
AITKIN         CLOUDY    36  30  80 W3        29.60S
PINE RIVER     CLOUDY    32  30  93 W3        29.65F
BRAINERD       CLOUDY    33  30  88 W5        29.62F WCI  29
STAPLES        CLOUDY    30  30 100 W7        29.62S WCI  23
LONG PRAIRIE   CLOUDY    32  30  93 W5        29.63F WCI  27
LITTLE FALLS   CLOUDY    32  30  93 W6        29.64F WCI  26
LITCHFIELD     CLOUDY    34  34 100 W8        29.66S WCI  27
BUFFALO        CLOUDY    33  31  92 W7        29.65F WCI  27
MAPLE LAKE     CLOUDY    34  33  96 W7        29.65F WCI  28
$$
MNZ037-044-045-052-053-242200-
   East Central Minnesota

CITY           SKY/WX    TMP DP  RH WIND       PRES   REMARKS
PRINCETON      CLOUDY    36  32  87 W6        29.63F
MORA           CLOUDY    34  28  80 CALM      29.64S
CAMBRIDGE      CLOUDY    37  28  70 W5        29.61F
RUSH CITY      CLOUDY    35  31  87 CALM      29.63S
MOOSE LAKE     CLOUDY    32  32 100 CALM      29.60R
HINCKLEY       CLOUDY    34  32  93 CALM      29.62S
CLOQUET        CLOUDY    34  30  86 NW6       29.60R WCI  29
MCGREGOR       CLOUDY    34  32  93 NW3       29.61S
$$
MNZ071>073-080-081-089-090-097-098-242200-
   Southwest Minnesota

CITY           SKY/WX    TMP DP  RH WIND       PRES   REMARKS
MONTEVIDEO     CLOUDY    30  30 100 NW8       29.68F WCI  23
GRANITE FALLS  CLOUDY    31  28  88 W8        29.69F WCI  23
CANBY          CLOUDY    28  26  91 W12       29.68F WCI  18
MARSHALL       CLOUDY    30  25  80 NW9       29.68F WCI  22
REDWOOD FALLS  CLOUDY    32  28  85 W9        29.67F WCI  24
OLIVIA         CLOUDY    30  30 100 NW9       29.67S WCI  22
PIPESTONE      FOG       27  25  93 NW9       29.67S VSB 1   WCI  17
WINDOM         CLOUDY    32  30  93 W12       29.67R WCI  23
WORTHINGTON    CLOUDY    28 -18  12 NW12      29.68R WCI  18
JACKSON        CLOUDY    32  28  86 W9        29.68R WCI  24
TRACY          CLOUDY    31  29  90 W5        29.67F WCI  27
SLAYTON        CLOUDY    28  27  96 W8        29.67F WCI  20
$$
MNZ065>067-074>077-082>085-091>093-242200-
   South Central Minnesota

CITY           SKY/WX    TMP DP  RH WIND       PRES   REMARKS
MANKATO        CLOUDY    34  28  80 NW10      29.66S WCI  26
NEW ULM        CLOUDY    32  30  93 NW7       29.67F WCI  26
FAIRMONT       CLOUDY    32  27  80 NW10      29.68R WCI  24
GLENCOE        CLOUDY    34  33  96 NW7       29.65S WCI  28
FARIBAULT      CLOUDY    36  30  80 W8        29.65R
OWATONNA       PTSUNNY   34  30  86 NW9       29.64S WCI  26
ALBERT LEA     CLOUDY    34  32  93 NW6       29.64R WCI  29
$$
MNZ078>079-086>088-094>096-242200-
   Southeast Minnesota

CITY           SKY/WX    TMP DP  RH WIND       PRES   REMARKS
ROCHESTER      CLOUDY    33  30  88 NW14      29.62R FOG     WCI  23
RED WING       CLOUDY    36  32  87 NW5       29.62S
STANTON        CLOUDY    36  31  82 NW8       29.62S
DODGE CENTER   CLOUDY    34  32  93 NW9       29.62R WCI  26
WINONA         CLOUDY    36  32  87 NW14      29.60S
AUSTIN         CLOUDY    34  30  86 NW10      29.63R WCI  26
PRESTON        CLOUDY    32  30  92 NW10      29.60S WCI  24
$$
ABBREVIATIONS USED IN REMARKS
   TC - TEMPERATURES IN CELSIUS
  WCI - WIND CHILL INDEX
   HX - HEAT INDEX
  VSB - VISIBILITY
$$



USA.gov is the U.S. government's official web portal to all federal, state and local government web resources and services.